Torna al catalogo

STARLINK-5324

AttivoComunicazioniVLEO
NORAD 55677·PAYLOAD·🇺🇸 United States

Lanciato Feb 17, 2023 da Vandenberg Space Force Base

Loading…

Prossimi Passaggi (prossime 24 ore)

TLE

AggiornatoSource: CelesTrak SupGP

Epoca: Sep 14, 2026, 21:51 UTC

1 55677C 23021BB  26257.91090278 -.00026681  00000+0 -22359-2 0  2570
2 55677  70.0030  27.3178 0003118 273.4130  35.4323 14.98344811    17

Traccia STARLINK-5324 in tempo reale con AllMySat

Download on the App Store